| time (UTC) | temp F | wind direction | speed MPH | gust MPH | rain 1hr in | rain 24hr in | rain mn in | humidity % | barometer mb |
| 20260504202036 | 55 | 360 | 2.0 | 5.0 | 0.00 | 0.00 | 0.00 | 88 | 1012.9 |
| 20260504201542 | 55 | 351 | 2.0 | 4.0 | 0.00 | 0.00 | 0.00 | 88 | 1012.9 |
| 20260504201107 | 55 | 18 | 2.0 | 8.0 | 0.00 | 0.00 | 0.00 | 87 | 1012.8 |
| 20260504200539 | 55 | 336 | 2.0 | 8.0 | 0.00 | 0.00 | 0.00 | 87 | 1012.7 |
| 20260504200058 | 56 | 355 | 3.0 | 9.0 | 0.00 | 0.00 | 0.00 | 86 | 1012.7 |
| 20260504195529 | 56 | 15 | 6.0 | 9.0 | 0.00 | 0.00 | 0.00 | 86 | 1012.7 |
| 20260504195037 | 56 | 19 | 4.0 | 9.0 | 0.00 | 0.00 | 0.00 | 86 | 1012.7 |
| 20260504194608 | 56 | 68 | 3.0 | 10.0 | 0.00 | 0.00 | 0.00 | 86 | 1012.6 |
| 20260504194031 | 56 | 31 | 5.0 | 10.0 | 0.00 | 0.00 | 0.00 | 86 | 1012.6 |
| 20260504193535 | 57 | 42 | 4.0 | 10.0 | 0.00 | 0.00 | 0.00 | 86 | 1012.6 |
| 20260504193058 | 57 | 76 | 4.0 | 8.0 | 0.00 | 0.00 | 0.00 | 85 | 1012.4 |
| 20260504192603 | 57 | 360 | 4.0 | 8.0 | 0.00 | 0.00 | 0.00 | 85 | 1012.4 |
| 20260504192041 | 57 | 360 | 4.0 | 10.0 | 0.00 | 0.00 | 0.00 | 85 | 1012.3 |
| 20260504191556 | 57 | 23 | 7.0 | 11.0 | 0.00 | 0.00 | 0.00 | 84 | 1012.3 |
| 20260504191053 | 58 | 22 | 7.0 | 11.0 | 0.00 | 0.00 | 0.00 | 84 | 1012.3 |
| 20260504190536 | 58 | 350 | 5.0 | 9.0 | 0.00 | 0.00 | 0.00 | 84 | 1012.2 |
| 20260504190047 | 58 | 316 | 3.0 | 9.0 | 0.00 | 0.00 | 0.00 | 84 | 1012.2 |
| 20260504185540 | 58 | 36 | 5.0 | 9.0 | 0.00 | 0.12 | 0.00 | 84 | 1012.2 |
| 20260504185037 | 59 | 46 | 3.0 | 6.0 | 0.00 | 0.12 | 0.00 | 84 | 1012.2 |
| 20260504184608 | 59 | 29 | 2.0 | 7.0 | 0.00 | 0.12 | 0.00 | 84 | 1012.2 |
| 20260504184054 | 59 | 36 | 3.0 | 6.0 | 0.00 | 0.12 | 0.00 | 84 | 1012.2 |
| 20260504183546 | 59 | 60 | 2.0 | 7.0 | 0.00 | 0.12 | 0.00 | 84 | 1012.2 |
| 20260504183034 | 59 | 28 | 4.0 | 8.0 | 0.00 | 0.12 | 0.00 | 84 | 1012.2 |
| 20260504182548 | 59 | 76 | 4.0 | 10.0 | 0.00 | 0.12 | 0.00 | 84 | 1012.1 |
| 20260504182041 | 59 | 360 | 6.0 | 10.0 | 0.00 | 0.12 | 0.00 | 85 | 1012.1 |
| 20260504181533 | 60 | 33 | 3.0 | 6.0 | 0.00 | 0.12 | 0.00 | 85 | 1012.1 |
| 20260504181039 | 60 | 65 | 3.0 | 9.0 | 0.00 | 0.12 | 0.00 | 85 | 1012.1 |
| 20260504180603 | 59 | 28 | 4.0 | 12.0 | 0.00 | 0.12 | 0.00 | 85 | 1012.0 |
| 20260504180031 | 60 | 26 | 4.0 | 8.0 | 0.00 | 0.12 | 0.00 | 85 | 1012.0 |
| 20260504175545 | 60 | 33 | 4.0 | 8.0 | 0.00 | 0.12 | 0.00 | 85 | 1012.1 |
| 20260504175101 | 60 | 38 | 3.0 | 7.0 | 0.00 | 0.12 | 0.00 | 85 | 1012.1 |
| 20260504174542 | 60 | 340 | 4.0 | 10.0 | 0.00 | 0.12 | 0.00 | 85 | 1012.1 |
| 20260504174040 | 60 | 334 | 3.0 | 10.0 | 0.00 | 0.12 | 0.00 | 86 | 1012.2 |
| 20260504173546 | 60 | 36 | 2.0 | 9.0 | 0.00 | 0.12 | 0.00 | 86 | 1012.1 |
| 20260504173032 | 60 | 27 | 4.0 | 9.0 | 0.00 | 0.12 | 0.00 | 86 | 1012.2 |
| 20260504172614 | 60 | 360 | 1.0 | 7.0 | 0.00 | 0.12 | 0.00 | 86 | 1012.1 |
| 20260504172059 | 60 | 10 | 2.0 | 7.0 | 0.00 | 0.12 | 0.00 | 86 | 1012.1 |
| 20260504171538 | 60 | 15 | 3.0 | 6.0 | 0.00 | 0.12 | 0.00 | 87 | 1012.1 |
| 20260504171043 | 60 | 360 | 3.0 | 7.0 | 0.00 | 0.12 | 0.00 | 86 | 1012.1 |
| 20260504170605 | 61 | 37 | 4.0 | 7.0 | 0.00 | 0.12 | 0.00 | 86 | 1012.1 |
| 20260504151040 | 64 | 302 | 1.0 | 5.0 | 0.00 | 0.12 | 0.00 | 81 | 1011.7 |
| 20260504150601 | 64 | 349 | 1.0 | 4.0 | 0.00 | 0.12 | 0.00 | 81 | 1011.8 |
| 20260504141048 | 65 | 46 | 1.0 | 3.0 | 0.00 | 0.20 | 0.00 | 77 | 1012.0 |
| 20260504140621 | 66 | 87 | 1.0 | 3.0 | 0.00 | 0.20 | 0.00 | 78 | 1012.0 |
| 20260504130552 | 64 | 34 | 0.0 | 4.0 | 0.00 | 0.28 | 0.00 | 81 | 1012.3 |
| 20260504110542 | 64 | 9 | 1.0 | 3.0 | 0.00 | 0.35 | 0.00 | 82 | 1012.6 |
| 20260504110106 | 64 | 323 | 1.0 | 3.0 | 0.00 | 0.35 | 0.00 | 82 | 1012.6 |
| 20260504100538 | 63 | 71 | 1.0 | 4.0 | 0.00 | 0.51 | 0.00 | 84 | 1012.8 |
| 20260504081551 | 58 | 194 | 1.0 | 2.0 | 0.00 | 0.67 | 0.00 | 95 | 1012.5 |
| 20260504081049 | 58 | 211 | 1.0 | 2.0 | 0.00 | 0.67 | 0.00 | 94 | 1012.5 |
| 20260504080601 | 58 | 138 | 0.0 | 2.0 | 0.00 | 0.67 | 0.00 | 95 | 1012.4 |
| 20260504050547 | 54 | 247 | 0.0 | 1.0 | 0.00 | 0.71 | 0.00 | 97 | 1011.0 |
| 20260504045534 | 54 | 247 | 0.0 | 2.0 | 0.00 | 0.71 | 0.00 | 97 | 1010.9 |
| 20260504045040 | 54 | 247 | 1.0 | 2.0 | 0.00 | 0.71 | 0.00 | 97 | 1010.9 |
| 20260504044541 | 54 | 247 | 0.0 | 1.0 | 0.00 | 0.71 | 0.00 | 96 | 1010.8 |
| 20260504044038 | 54 | 247 | 0.0 | 1.0 | 0.00 | 0.71 | 0.00 | 96 | 1010.7 |
| 20260504043538 | 53 | 247 | 0.0 | 0.0 | 0.00 | 0.71 | 0.00 | 96 | 1010.8 |
| 20260504043041 | 53 | 247 | 0.0 | 0.0 | 0.00 | 0.71 | 0.00 | 96 | 1010.7 |
| 20260504042604 | 53 | 247 | 0.0 | 0.0 | 0.00 | 0.71 | 0.00 | 96 | 1010.8 |
| 20260504042044 | 53 | 247 | 0.0 | 1.0 | 0.00 | 0.71 | 0.00 | 97 | 1010.8 |
| 20260504041547 | 53 | 247 | 0.0 | 1.0 | 0.00 | 0.71 | 0.00 | 97 | 1010.9 |
| 20260504041100 | 53 | 247 | 0.0 | 1.0 | 0.00 | 0.71 | 0.00 | 97 | 1011.0 |
| 20260504040543 | 53 | 247 | 0.0 | 1.0 | 0.00 | 0.71 | 0.00 | 96 | 1010.9 |
| 20260504040031 | 53 | 247 | 0.0 | 1.0 | 0.00 | 0.71 | 0.00 | 96 | 1010.9 |
| 20260504035556 | 53 | 247 | 0.0 | 1.0 | 0.00 | 0.83 | 0.00 | 96 | 1010.9 |
| 20260504035048 | 53 | 247 | 0.0 | 1.0 | 0.00 | 0.83 | 0.00 | 96 | 1010.9 |
| 20260504034557 | 53 | 247 | 0.0 | 2.0 | 0.00 | 0.83 | 0.00 | 96 | 1011.0 |
| 20260504034051 | 53 | 247 | 0.0 | 2.0 | 0.00 | 0.83 | 0.00 | 96 | 1011.0 |
| 20260504033539 | 52 | 247 | 0.0 | 2.0 | 0.00 | 0.83 | 0.00 | 97 | 1010.9 |
| 20260504033035 | 52 | 247 | 0.0 | 1.0 | 0.00 | 0.83 | 0.00 | 96 | 1011.1 |
| 20260504032542 | 52 | 247 | 0.0 | 3.0 | 0.00 | 0.83 | 0.00 | 96 | 1011.1 |
| 20260504032028 | 52 | 247 | 1.0 | 3.0 | 0.00 | 0.83 | 0.00 | 96 | 1011.1 |
| 20260504031542 | 52 | 247 | 0.0 | 1.0 | 0.00 | 0.83 | 0.00 | 96 | 1011.1 |
| 20260504031059 | 52 | 247 | 0.0 | 1.0 | 0.00 | 0.83 | 0.00 | 96 | 1011.1 |
| 20260504030554 | 52 | 247 | 0.0 | 1.0 | 0.00 | 0.83 | 0.00 | 96 | 1011.1 |
| 20260504030038 | 52 | 247 | 0.0 | 1.0 | 0.00 | 0.83 | 0.00 | 96 | 1011.0 |
| 20260504025534 | 52 | 247 | 0.0 | 1.0 | 0.00 | 0.91 | 0.00 | 96 | 1011.0 |
| 20260504025028 | 51 | 247 | 0.0 | 1.0 | 0.00 | 0.91 | 0.00 | 96 | 1010.9 |
| 20260504024600 | 51 | 247 | 0.0 | 1.0 | 0.00 | 0.91 | 0.00 | 96 | 1010.9 |
| 20260504024028 | 51 | 247 | 0.0 | 1.0 | 0.00 | 0.91 | 0.00 | 96 | 1010.9 |
| 20260504023531 | 51 | 247 | 0.0 | 1.0 | 0.00 | 0.91 | 0.00 | 96 | 1010.9 |
| 20260504023040 | 51 | 247 | 0.0 | 1.0 | 0.00 | 0.91 | 0.00 | 96 | 1010.8 |
| 20260504022558 | 51 | 247 | 0.0 | 1.0 | 0.00 | 0.91 | 0.00 | 96 | 1010.8 |
| 20260504022036 | 51 | 247 | 1.0 | 1.0 | 0.00 | 0.91 | 0.00 | 96 | 1010.7 |
| 20260504021538 | 51 | 247 | 0.0 | 0.0 | 0.00 | 0.91 | 0.00 | 96 | 1010.6 |
| 20260504021026 | 51 | 247 | 0.0 | 0.0 | 0.00 | 0.91 | 0.00 | 96 | 1010.7 |
| 20260504020625 | 51 | 247 | 0.0 | 1.0 | 0.00 | 0.91 | 0.00 | 96 | 1010.7 |
| 20260504020028 | 51 | 247 | 0.0 | 1.0 | 0.00 | 0.91 | 0.00 | 96 | 1010.7 |
| 20260504015608 | 51 | 247 | 0.0 | 0.0 | 0.00 | 0.91 | 0.00 | 96 | 1010.7 |
| 20260504015038 | 51 | 247 | 0.0 | 0.0 | 0.00 | 0.91 | 0.00 | 96 | 1010.7 |
| 20260504014544 | 52 | 247 | 0.0 | 0.0 | 0.00 | 0.91 | 0.00 | 96 | 1010.8 |
| 20260504014030 | 52 | 247 | 0.0 | 0.0 | 0.00 | 0.91 | 0.00 | 96 | 1010.7 |
| 20260504013556 | 52 | 247 | 0.0 | 0.0 | 0.00 | 0.91 | 0.00 | 96 | 1010.7 |
| 20260504013035 | 52 | 247 | 0.0 | 0.0 | 0.00 | 0.91 | 0.00 | 96 | 1010.7 |
| 20260504012543 | 52 | 247 | 0.0 | 0.0 | 0.00 | 0.91 | 0.00 | 96 | 1010.7 |
| 20260504012044 | 52 | 247 | 0.0 | 0.0 | 0.00 | 0.91 | 0.00 | 95 | 1010.7 |
| 20260504011543 | 52 | 247 | 0.0 | 0.0 | 0.00 | 0.91 | 0.00 | 96 | 1010.7 |
| 20260504011029 | 52 | 247 | 0.0 | 0.0 | 0.00 | 0.91 | 0.00 | 95 | 1010.7 |
| 20260504010541 | 53 | 247 | 0.0 | 0.0 | 0.00 | 0.91 | 0.00 | 95 | 1010.8 |
| 20260504010031 | 53 | 247 | 0.0 | 1.0 | 0.00 | 0.91 | 0.00 | 95 | 1010.7 |
| 20260504005537 | 53 | 247 | 0.0 | 1.0 | 0.00 | 0.91 | 0.00 | 95 | 1010.8 |
| 20260504005040 | 53 | 247 | 0.0 | 1.0 | 0.00 | 0.91 | 0.00 | 95 | 1010.7 |
| 20260504004554 | 53 | 247 | 0.0 | 1.0 | 0.00 | 0.91 | 0.00 | 95 | 1010.7 |
| 20260504004050 | 53 | 247 | 0.0 | 0.0 | 0.00 | 0.91 | 0.00 | 95 | 1010.6 |
| 20260504003601 | 53 | 247 | 0.0 | 0.0 | 0.00 | 0.91 | 0.00 | 95 | 1010.6 |
| 20260504003039 | 53 | 247 | 0.0 | 0.0 | 0.00 | 0.91 | 0.00 | 95 | 1010.6 |
| 20260504002601 | 54 | 247 | 0.0 | 0.0 | 0.00 | 0.91 | 0.00 | 95 | 1010.5 |
| 20260504002046 | 54 | 247 | 0.0 | 1.0 | 0.00 | 0.91 | 0.00 | 95 | 1010.6 |
| 20260504001547 | 54 | 247 | 0.0 | 3.0 | 0.00 | 0.91 | 0.00 | 95 | 1010.6 |
| 20260504001035 | 54 | 247 | 1.0 | 3.0 | 0.00 | 0.91 | 0.00 | 95 | 1010.8 |
| 20260504000558 | 54 | 247 | 1.0 | 3.0 | 0.00 | 0.91 | 0.00 | 95 | 1010.9 |
| 20260504000031 | 54 | 247 | 1.0 | 3.0 | 0.00 | 0.91 | 0.00 | 95 | 1011.0 |
| 20260503235543 | 54 | 180 | 0.0 | 3.0 | 0.00 | 0.91 | 0.00 | 95 | 1011.0 |
| 20260503235025 | 54 | 180 | 2.0 | 3.0 | 0.00 | 0.91 | 0.00 | 95 | 1010.9 |
| 20260503234612 | 54 | 201 | 0.0 | 1.0 | 0.00 | 0.91 | 0.00 | 95 | 1010.9 |
| 20260503234104 | 54 | 201 | 0.0 | 2.0 | 0.00 | 0.91 | 0.00 | 95 | 1010.8 |
| 20260503233606 | 54 | 201 | 0.0 | 2.0 | 0.00 | 0.91 | 0.00 | 95 | 1010.8 |
| 20260503233047 | 55 | 173 | 1.0 | 3.0 | 0.00 | 0.91 | 0.00 | 95 | 1010.8 |
| 20260503232534 | 55 | 205 | 2.0 | 3.0 | 0.00 | 0.91 | 0.00 | 95 | 1010.9 |
| 20260503232033 | 55 | 180 | 1.0 | 3.0 | 0.00 | 0.91 | 0.00 | 95 | 1010.9 |
| 20260503231558 | 55 | 211 | 2.0 | 3.0 | 0.00 | 0.91 | 0.00 | 95 | 1010.9 |
| 20260503231123 | 55 | 208 | 2.0 | 3.0 | 0.00 | 0.91 | 0.00 | 95 | 1010.8 |
| 20260503230536 | 55 | 232 | 1.0 | 3.0 | 0.00 | 0.91 | 0.00 | 95 | 1010.8 |
| 20260503230056 | 55 | 232 | 1.0 | 3.0 | 0.00 | 0.91 | 0.00 | 95 | 1010.8 |
| 20260503225546 | 55 | 232 | 1.0 | 2.0 | 0.00 | 0.94 | 0.00 | 95 | 1010.7 |
| 20260503225031 | 55 | 232 | 1.0 | 3.0 | 0.00 | 0.94 | 0.00 | 95 | 1010.7 |
| 20260503224536 | 55 | 206 | 2.0 | 3.0 | 0.00 | 0.94 | 0.00 | 95 | 1010.7 |
| 20260503224049 | 55 | 196 | 1.0 | 2.0 | 0.00 | 0.94 | 0.00 | 94 | 1010.8 |
| 20260503223538 | 55 | 157 | 1.0 | 2.0 | 0.00 | 0.94 | 0.00 | 94 | 1010.8 |
| 20260503223039 | 55 | 157 | 1.0 | 3.0 | 0.00 | 0.94 | 0.00 | 94 | 1010.9 |
| 20260503222557 | 55 | 238 | 1.0 | 3.0 | 0.00 | 0.94 | 0.00 | 94 | 1010.9 |
| 20260503222029 | 55 | 218 | 2.0 | 3.0 | 0.00 | 0.94 | 0.00 | 94 | 1010.9 |
| 20260503221557 | 55 | 192 | 1.0 | 4.0 | 0.00 | 0.94 | 0.00 | 94 | 1010.9 |
| 20260503221102 | 56 | 185 | 1.0 | 4.0 | 0.00 | 0.94 | 0.00 | 94 | 1010.8 |
| 20260503220546 | 56 | 234 | 1.0 | 4.0 | 0.00 | 0.94 | 0.00 | 94 | 1010.8 |
| 20260503220039 | 56 | 234 | 2.0 | 3.0 | 0.00 | 0.94 | 0.00 | 94 | 1010.7 |
| 20260503215541 | 56 | 234 | 1.0 | 3.0 | 0.00 | 1.97 | 0.19 | 94 | 1010.7 |
| 20260503215039 | 56 | 234 | 1.0 | 3.0 | 0.00 | 1.97 | 0.19 | 94 | 1010.7 |
| 20260503214531 | 56 | 234 | 1.0 | 3.0 | 0.00 | 1.97 | 0.19 | 94 | 1010.7 |
| 20260503214034 | 56 | 234 | 2.0 | 3.0 | 0.00 | 1.97 | 0.19 | 94 | 1010.8 |
| 20260503213552 | 56 | 234 | 1.0 | 3.0 | 0.00 | 1.97 | 0.19 | 94 | 1010.7 |
| 20260503213050 | 56 | 234 | 1.0 | 4.0 | 0.00 | 1.97 | 0.19 | 94 | 1010.7 |
| 20260503212532 | 56 | 207 | 2.0 | 4.0 | 0.00 | 1.97 | 0.19 | 94 | 1010.7 |
| 20260503212042 | 56 | 207 | 2.0 | 4.0 | 0.00 | 1.97 | 0.19 | 94 | 1010.7 |
| 20260503211554 | 56 | 195 | 1.0 | 4.0 | 0.00 | 1.97 | 0.19 | 94 | 1010.7 |
| 20260503211033 | 57 | 190 | 2.0 | 5.0 | 0.00 | 1.97 | 0.19 | 93 | 1010.6 |
| 20260503210536 | 57 | 203 | 1.0 | 5.0 | 0.00 | 1.97 | 0.19 | 94 | 1010.5 |
| 20260503210028 | 57 | 239 | 2.0 | 3.0 | 0.00 | 1.97 | 0.19 | 94 | 1010.5 |
| 20260503205538 | 57 | 227 | 1.0 | 5.0 | 0.00 | 1.97 | 0.19 | 94 | 1010.5 |
| 20260503205102 | 57 | 197 | 3.0 | 5.0 | 0.00 | 1.97 | 0.19 | 93 | 1010.5 |
| 20260503204550 | 57 | 223 | 2.0 | 5.0 | 0.00 | 1.97 | 0.19 | 93 | 1010.6 |
| 20260503204043 | 57 | 196 | 3.0 | 5.0 | 0.00 | 1.97 | 0.19 | 93 | 1010.7 |
| 20260503203540 | 57 | 181 | 2.0 | 5.0 | 0.00 | 1.97 | 0.19 | 93 | 1010.8 |
| 20260503203043 | 57 | 224 | 1.0 | 3.0 | 0.00 | 1.97 | 0.19 | 93 | 1010.7 |
| 20260503202604 | 57 | 183 | 2.0 | 4.0 | 0.00 | 1.97 | 0.19 | 93 | 1010.6 |